Torna al catalogo

CZ-6A DEB

AttivoSSO
NORAD 56247·DEBRIS·🇨🇳 China

Lanciato Nov 11, 2022 da Taiyuan Satellite Launch Center

Loading…

Prossimi Passaggi (prossime 24 ore)

TLE

AggiornatoSource: Space-Track

Epoca: Sep 14, 2026, 10:20 UTC

1 56247U 22151ABP 26257.43110968  .00004351  00000-0  60786-3 0  9992
2 56247  98.4296 315.3454 0110438 282.4271  76.4595 14.74068317190942

Traccia CZ-6A DEB in tempo reale con AllMySat

Download on the App Store